• MPC Preparation (Info)

  • MPEC 2023-J91 : 2023 JO

    The following Minor Planet Electronic Circular may be linked-to from your own Web pages, but must not otherwise be redistributed electronically.

    A form allowing access to any MPEC is at the bottom of this page.


    Read MPEC 2023-J90 Read MPEC 2023-J92


    M.P.E.C. 2023-J91                                  Issued 2023 May 10, 22:10 UT
    
         The Minor Planet Electronic Circulars contain information on unusual
             minor planets, routine data on comets and natural satellites,
             and occasional editorial announcements.  They are published
        on behalf of Division F of the International Astronomical Union by the
              Minor Planet Center, Smithsonian Astrophysical Observatory,
                              Cambridge, MA 02138, U.S.A.
    			  
                 Prepared using the Tamkin Foundation Computer Network
    
                                  MPC@CFA.HARVARD.EDU
                URL https://www.minorplanetcenter.net/    ISSN 1523-6714
    
                                     2023 JO                                 
    
    
    Observations:
         K23J00O*1C2023 05 09.33393815 07 09.602-12 39 30.64         18.33GVEJ091703
         K23J00O 1C2023 05 09.33516815 07 12.878-12 39 13.68         18.33GVEJ091703
         K23J00O 1C2023 05 09.33640215 07 16.223-12 38 55.68         18.07GVEJ091703
         K23J00O 1C2023 05 09.33763015 07 19.520-12 38 38.90         17.98GVEJ091703
         K23J00O KC2023 05 09.39638515 09 40.432-12 26 01.79         18.41GVEJ091I52
         K23J00O KC2023 05 09.39691115 09 41.591-12 25 55.45         18.50GVEJ091I52
         K23J00O KC2023 05 09.39742315 09 42.707-12 25 49.66         18.45GVEJ091I52
         K23J00O KC2023 05 09.39793815 09 43.834-12 25 43.57         18.43GVEJ091I52
         K23J00O hC2023 05 09.90453415 21 55.87 -11 38 31.1          19.6 GVEJ091L01
         K23J00O hC2023 05 09.90613815 21 56.62 -11 38 26.7          19.7 GVEJ091L01
         K23J00O hC2023 05 09.90749515 21 57.26 -11 38 22.8          19.6 GVEJ091L01
         K23J00O hC2023 05 09.90897715 21 57.97 -11 38 17.6          19.6 GVEJ091L01
         K23J00O hC2023 05 09.91045915 21 58.64 -11 38 13.5          19.7 GVEJ091L01
         K23J00O KC2023 05 10.21268115 24 45.26 -11 24 25.4          20.0 GXEJ091858
         K23J00O KC2023 05 10.22098015 24 47.10 -11 24 12.3          20.6 GXEJ091858
         K23J00O KC2023 05 10.23017915 24 49.12 -11 23 58.3          20.1 GXEJ091858
         K23J00O |C2023 05 10.26797 15 24 36.60 -11 12 53.9          20.5 VuEJ091807
         K23J00O |C2023 05 10.27286 15 24 37.59 -11 12 45.9          20.4 VuEJ091807
         K23J00O |C2023 05 10.27783 15 24 38.55 -11 12 38.3          20.5 VuEJ091807
    
    Observer details:
    703 Catalina Sky Survey.  Observer J. K. Hogan.  Measurers E. J. Christensen,
        D. Fay, J. B. Fazekas, D. C. Fuls, A. R. Gibbs, A. D. Grauer, H. Groeller,
        J. K. Hogan, R. A. Kowalski, S. M. Larson, G. J. Leonard, D. Rankin, R. L.
        Seaman, A. Serrano, F. C. Shelly, K. W. Wierzchos.  0.68-m Schmidt + 10K
        CCD.
    807 Cerro Tololo Observatory, La Serena.  Observers T. Linder, R. Holmes, L.
        Horn.  0.61-m f/6.5 Dall-Kirkham Astrograph + CCD.
    858 Tebbutt Observatory, Edgewood.  Observer F. B. Zoltowski.  0.51-m f/8.1
        Schmidt-Cassegrain + CCD.
    I52 Steward Observatory, Mt. Lemmon Station.  Observer R. A. Kowalski.
        Measurers E. J. Christensen, D. Fay, J. B. Fazekas, D. C. Fuls, A. R.
        Gibbs, A. D. Grauer, H. Groeller, J. K. Hogan, R. A. Kowalski, S. M.
        Larson, G. J. Leonard, D. Rankin, R. L. Seaman, A. Serrano, F. C. Shelly,
        K. W. Wierzchos.  1.0-m prime focus + CCD.
    L01 Visnjan Observatory, Tican.  Observers K. Korlevic, I. Lyon.  Measurer K.
        Korlevic.  1.0-m f/2.9 reflector + CCD.
    
    Orbital elements:
    2023 JO                                                  Earth MOID = 0.0003 AU
    Epoch 2023 Feb. 25.0 TT = JDT 2460000.5                 Veres                   
    M 351.25312              (2000.0)            P               Q                  
    n   0.33712825     Peri.  278.84706     -0.83316928     -0.54989277             
    a   2.0445887      Node   227.81785     +0.53341512     -0.77107885             
    e   0.6738927      Incl.    4.54428     +0.14593579     -0.32102235             
    P   2.92           H   29.21          G   0.15           U   7                  
    Residuals in seconds of arc
    230509 703  0.2-  0.0     230509 I52  0.1+  0.0     230510 858  0.4-  0.0
    230509 703  0.5-  0.4-    230509 L01  0.3-  0.1-    230510 858  0.0   0.5-
    230509 703  0.2+  0.1+    230509 L01  0.3-  0.5-    230510 807  0.0   0.1-
    230509 703  0.7+  0.3-    230509 L01  0.3-  0.6-    230510 807  0.3+  0.2+
    230509 I52  0.2-  0.1+    230509 L01  0.0   0.3+    230510 807  0.2-  0.1-
    230509 I52  0.0   0.3+    230509 L01  0.2-  0.1+
    230509 I52  0.0   0.0     230510 858  0.1+  0.1-
    
    Ephemeris:
    2023 JO                  a,e,i = 2.04, 0.67, 5                   q = 0.6668
    Date    TT    R. A. (2000) Decl.     Delta      r    Elong.  Phase     V
    2023 04 10    03 16 42.6 +11 18 12   0.3350  0.7346    30.9   135.5    32.5
    ...
    2023 04 25    03 27 40.2 +11 06 51   0.1516  0.8644    19.6   157.0    34.8
    ...
    2023 05 03    03 30 31.8 +10 55 41   0.06302 0.9466    13.5   165.6
    ...
    2023 05 09    14 12 55.7 -15 09 38   0.0018001.0110   168.2    11.8    16.2
    2023 05 10    15 22 41.5 -11 24 10   0.01246 1.0219   172.7     7.2    20.3
    2023 05 11    15 27 55.1 -11 04 13   0.02320 1.0327   172.0     7.8    21.7
    ...
    2023 05 17    15 32 10.7 -10 49 55   0.08812 1.0984   171.7     7.6    24.7
    ...
    2023 05 25    15 33 00.4 -10 58 20   0.1773  1.1865   167.5    10.6    26.5
    ...
    2023 06 09    15 35 52.0 -11 38 13   0.3585  1.3499   155.7    18.0    28.6
    
    M. P. C. Staff               (C) Copyright 2023 MPC           M.P.E.C. 2023-J91
    


    Read MPEC 2023-J90 Read MPEC 2023-J92


    MPEC number:

    Enter an MPEC number in one of the following forms:

    • 1997-B01 (the full form)
    • J97B01 (the packed version of the full form)
    • B01 (the abbreviated form)